H1 CPF 2 NER 2021 8 27 9 239 01 glonass137 H2 1705501 9137 42939 2021 8 27 0 0 0 2021 8 30 23 45 0 900 1 1 0 0 0 1 H9 10 0 59453 0.00000 0 -9653156.346 -8781225.210 -21901626.441 10 0 59453 900.00000 0 -9483621.375 -11410016.475 -20735594.496 10 0 59453 1800.00000 0 -9505035.284 -13875461.586 -19166325.643 10 0 59453 2700.00000 0 -9691656.242 -16116820.204 -17224429.495 10 0 59453 3600.00000 0 -10007747.362 -18080818.272 -14947748.067 10 0 59453 4500.00000 0 -10409234.056 -19723657.710 -12380612.320 10 0 59453 5400.00000 0 -10845725.658 -21012638.879 -9572973.368 10 0 59453 6300.00000 0 -11262815.151 -21927329.178 -6579425.602 10 0 59453 7200.00000 0 -11604559.042 -22460230.235 -3458141.214 10 0 59453 8100.00000 0 -11816032.018 -22616917.388 -269737.215 10 0 59453 9000.00000 0 -11845848.059 -22415647.213 2923902.753 10 0 59453 9900.00000 0 -11648541.281 -21886451.109 6060828.512 10 0 59453 10800.00000 0 -11186705.934 -21069754.436 9080222.072 10 0 59453 11700.00000 0 -10432805.236 -20014580.339 11923571.757 10 0 59453 12600.00000 0 -9370572.865 -18776414.479 14535799.254 10 0 59453 13500.00000 0 -7995948.035 -17414820.740 16866318.322 10 0 59453 14400.00000 0 -6317504.569 -15990907.933 18870005.432 10 0 59453 15300.00000 0 -4356355.476 -14564753.323 20508064.435 10 0 59453 16200.00000 0 -2145536.176 -13192890.227 21748769.553 10 0 59453 17100.00000 0 271109.117 -11925963.883 22568073.309 10 0 59453 18000.00000 0 2840492.827 -10806652.684 22950068.432 10 0 59453 18900.00000 0 5502237.890 -9867940.653 22887295.420 10 0 59453 19800.00000 0 8190940.748 -9131812.538 22380890.051 10 0 59453 20700.00000 0 10838651.283 -8608425.497 21440567.865 10 0 59453 21600.00000 0 13377468.566 -8295791.676 20084445.395 10 0 59453 22500.00000 0 15742146.204 -8179984.978 18338700.729 10 0 59453 23400.00000 0 17872600.175 -8235863.616 16237078.861 10 0 59453 24300.00000 0 19716215.739 -8428278.563 13820250.129 10 0 59453 25200.00000 0 21229857.747 -8713717.651 11135032.860 10 0 59453 26100.00000 0 22381500.465 -9042316.564 8233494.190 10 0 59453 27000.00000 0 23151408.573 -9360152.247 5171945.586 10 0 59453 27900.00000 0 23532819.390 -9611721.888 2009851.977 10 0 59453 28800.00000 0 23532097.139 -9742502.360 -1191324.395 10 0 59453 29700.00000 0 23168352.240 -9701481.081 -4369322.735 10 0 59453 30600.00000 0 22472541.297 -9443550.041 -7462301.208 10 0 59453 31500.00000 0 21486085.471 -8931660.239 -10410048.580 10 0 59453 32400.00000 0 20259065.583 -8138643.672 -13155165.470 10 0 59453 33300.00000 0 18848070.335 -7048624.031 -15644191.181 10 0 59453 34200.00000 0 17313788.886 -5657954.751 -17828653.151 10 0 59453 35100.00000 0 15718449.866 -3975643.116 -19666017.837 10 0 59453 36000.00000 0 14123215.320 -2023241.009 -21120523.970 10 0 59453 36900.00000 0 12585639.851 165794.339 -22163881.570 10 0 59453 37800.00000 0 11157302.203 2547243.835 -22775823.120 10 0 59453 38700.00000 0 9881708.870 5067727.177 -22944496.268 10 0 59453 39600.00000 0 8792557.672 7666694.160 -22666690.722 10 0 59453 40500.00000 0 7912433.599 10278723.899 -21947895.325 10 0 59453 41400.00000 0 7251990.811 12836036.268 -20802184.638 10 0 59453 42300.00000 0 6809654.027 15271110.924 -19251937.682 10 0 59453 43200.00000 0 6571850.435 17519305.006 -17327394.775 10 0 59453 44100.00000 0 6513760.871 19521360.636 -15066061.443 10 0 59453 45000.00000 0 6600557.104 21225698.027 -12511971.479 10 0 59453 45900.00000 0 6789071.576 22590399.133 -9714823.853 10 0 59453 46800.00000 0 7029827.801 23584799.840 -6729010.648 10 0 59453 47700.00000 0 7269344.543 24190625.123 -3612555.408 10 0 59453 48600.00000 0 7452615.485 24402620.911 -425982.930 10 0 59453 49500.00000 0 7525658.903 24228657.557 2768857.242 10 0 59453 50400.00000 0 7438029.178 23689301.913 5909990.391 10 0 59453 51300.00000 0 7145183.770 22816877.290 8936515.920 10 0 59453 52200.00000 0 6610605.645 21654051.818 11789783.200 10 0 59453 53100.00000 0 5807591.628 20252015.278 14414521.377 10 0 59453 54000.00000 0 4720631.282 18668321.311 16759901.876 10 0 59453 54900.00000 0 3346318.141 16964485.476 18780513.739 10 0 59453 55800.00000 0 1693754.674 15203439.453 20437233.830 10 0 59453 56700.00000 0 -215566.708 13446947.165 21697976.068 10 0 59453 57600.00000 0 -2348402.675 11753089.871 22538306.204 10 0 59453 58500.00000 0 -4660892.660 10173924.140 22941911.051 10 0 59453 59400.00000 0 -7100141.606 8753409.288 22900913.721 10 0 59453 60300.00000 0 -9606187.790 7525689.596 22416029.032 10 0 59453 61200.00000 0 -12114275.713 6513802.133 21496555.980 10 0 59453 62100.00000 0 -14557341.481 5728863.365 20160206.912 10 0 59453 63000.00000 0 -16868609.076 5169768.168 18432775.866 10 0 59453 63900.00000 0 -18984190.807 4823413.701 16347651.358 10 0 59453 64800.00000 0 -20845584.721 4665438.825 13945181.818 10 0 59453 65700.00000 0 -22401965.430 4661448.302 11271904.618 10 0 59453 66600.00000 0 -23612172.739 4768670.531 8379652.532 10 0 59453 67500.00000 0 -24446314.699 4937979.223 5324554.024 10 0 59453 68400.00000 0 -24886917.342 5116193.640 2165946.161 10 0 59453 69300.00000 0 -24929572.079 5248559.957 -1034778.859 10 0 59453 70200.00000 0 -24583052.803 5281308.127 -4215370.926 10 0 59453 71100.00000 0 -23868897.028 5164175.014 -7313939.221 10 0 59453 72000.00000 0 -22820468.170 4852785.673 -10270164.737 10 0 59453 72900.00000 0 -21481538.203 4310790.402 -13026483.607 10 0 59453 73800.00000 0 -19904450.337 3511665.385 -15529217.158 10 0 59453 74700.00000 0 -18147939.373 2440099.081 -17729625.657 10 0 59453 75600.00000 0 -16274701.858 1092904.077 -19584864.468 10 0 59453 76500.00000 0 -14348818.745 -520585.649 -21058823.455 10 0 59453 77400.00000 0 -12433139.373 -2378650.130 -22122832.910 10 0 59453 78300.00000 0 -10586736.954 -4447846.947 -22756222.218 10 0 59453 79200.00000 0 -8862542.424 -6684176.006 -22946720.537 10 0 59453 80100.00000 0 -7305255.757 -9034697.336 -22690691.942 10 0 59453 81000.00000 0 -5949621.745 -11439534.720 -21993200.884 10 0 59453 81900.00000 0 -4819141.634 -13834181.710 -20867907.104 10 0 59453 82800.00000 0 -3925273.450 -16152013.805 -19336792.508 10 0 59453 83700.00000 0 -3267153.086 -18326902.053 -17429725.748 10 0 59453 84600.00000 0 -2831846.140 -20295819.139 -15183873.382 10 0 59453 85500.00000 0 -2595118.168 -22001329.240 -12642969.495 10 0 59454 0.00000 0 -2522689.115 -23393858.067 -9856458.449 10 0 59454 900.00000 0 -2571917.329 -24433648.477 -6878527.451 10 0 59454 1800.00000 0 -2693840.726 -25092321.241 -3767049.129 10 0 59454 2700.00000 0 -2835487.392 -25353975.108 -582453.875 10 0 59454 3600.00000 0 -2942357.263 -25215782.809 2613444.920 10 0 59454 4500.00000 0 -2960969.105 -24688057.813 5758649.932 10 0 59454 5400.00000 0 -2841364.815 -23793790.755 8792179.789 10 0 59454 6300.00000 0 -2539465.001 -22567675.778 11655246.642 10 0 59454 7200.00000 0 -2019176.393 -21054668.400 14292388.763 10 0 59454 8100.00000 0 -1254162.252 -19308135.801 16652536.788 10 0 59454 9000.00000 0 -229201.129 -17387677.036 18689993.755 10 0 59454 9900.00000 0 1058923.257 -15356704.113 20365310.791 10 0 59454 10800.00000 0 2601038.878 -13279884.322 21646042.560 10 0 59454 11700.00000 0 4375725.832 -11220549.567 22507368.866 10 0 59454 12600.00000 0 6349975.548 -9238179.613 22932571.178 10 0 59454 13500.00000 0 8480342.754 -7386062.776 22913355.541 10 0 59454 14400.00000 0 10714543.869 -5709230.185 22450015.881 10 0 59454 15300.00000 0 12993437.085 -4242748.532 21551434.469 10 0 59454 16200.00000 0 15253303.576 -3010441.431 20234919.046 10 0 59454 17100.00000 0 17428336.678 -2024091.992 18525878.921 10 0 59454 18000.00000 0 19453236.769 -1283159.469 16457345.202 10 0 59454 18900.00000 0 21265804.879 -775021.623 14069343.194 10 0 59454 19800.00000 0 22809427.479 -475732.599 11408127.779 10 0 59454 20700.00000 0 24035348.765 -351264.604 8525295.505 10 0 59454 21600.00000 0 24904635.174 -359181.185 5476789.630 10 0 59454 22500.00000 0 25389749.125 -450671.519 2321816.816 10 0 59454 23400.00000 0 25475665.091 -572859.578 -878303.585 10 0 59454 24300.00000 0 25160480.055 -671289.983 -4061335.172 10 0 59454 25200.00000 0 24455491.692 -692484.489 -7165341.249 10 0 59454 26100.00000 0 23384740.096 -586459.721 -10129898.130 10 0 59454 27000.00000 0 21984031.673 -309098.121 -12897280.429 10 0 59454 27900.00000 0 20299485.907 175729.844 -15413594.258 10 0 59454 28800.00000 0 18385666.021 894383.663 -17629835.205 10 0 59454 29700.00000 0 16303372.276 1862087.895 -19502849.746 10 0 59454 30600.00000 0 14117190.858 3082043.629 -20996180.777 10 0 59454 31500.00000 0 11892901.646 4545055.088 -22080780.434 10 0 59454 32400.00000 0 9694853.799 6229688.274 -22735576.251 10 0 59454 33300.00000 0 7583419.264 8102955.953 -22947879.774 10 0 59454 34200.00000 0 5612630.717 10121500.871 -22713629.937 10 0 59454 35100.00000 0 3828102.374 12233228.115 -22037466.860 10 0 59454 36000.00000 0 2265319.810 14379318.556 -20932635.083 10 0 59454 36900.00000 0 948369.328 16496539.227 -19420718.545 10 0 59454 37800.00000 0 -110841.448 18519754.057 -17531212.938 10 0 59454 38700.00000 0 -912840.827 20384530.019 -15300944.102 10 0 59454 39600.00000 0 -1470319.193 22029729.642 -12773344.262 10 0 59454 40500.00000 0 -1807337.603 23399981.583 -9997600.530 10 0 59454 41400.00000 0 -1958054.064 24447926.082 -7027692.642 10 0 59454 42300.00000 0 -1965022.989 25136141.606 -3921339.117 10 0 59454 43200.00000 0 -1877141.154 25438672.555 -738872.695 10 0 59454 44100.00000 0 -1747328.247 25342094.662 2457932.721 10 0 59454 45000.00000 0 -1630040.932 24846074.226 5607060.508 10 0 59454 45900.00000 0 -1578726.178 23963398.584 8647451.746 10 0 59454 46800.00000 0 -1643321.777 22719477.323 11520184.425 10 0 59454 47700.00000 0 -1867909.730 21151335.765 14169608.756 10 0 59454 48600.00000 0 -2288621.420 19306143.315 16544417.144 10 0 59454 49500.00000 0 -2931882.809 17239338.238 18598628.879 10 0 59454 50400.00000 0 -3813073.437 15012427.040 20292471.290 10 0 59454 51300.00000 0 -4935655.755 12690549.624 21593141.401 10 0 59454 52200.00000 0 -6290811.795 10339910.735 22475434.312 10 0 59454 53100.00000 0 -7857603.135 8025183.529 22922227.014 10 0 59454 54000.00000 0 -9603648.645 5806991.864 22924808.915 10 0 59454 54900.00000 0 -11486293.183 3739574.614 22483053.007 10 0 59454 55800.00000 0 -13454220.123 1868727.818 21605424.282 10 0 59454 56700.00000 0 -15449442.253 230109.057 20308824.780 10 0 59454 57600.00000 0 -17409589.832 -1152026.337 18618277.442 10 0 59454 58500.00000 0 -19270401.857 -2265605.211 16566453.799 10 0 59454 59400.00000 0 -20968317.834 -3111000.566 14193053.381 10 0 59454 60300.00000 0 -22443062.611 -3700768.780 11544045.540 10 0 59454 61200.00000 0 -23640116.435 -4058871.130 8670787.244 10 0 59454 62100.00000 0 -24512966.646 -4219412.370 5629032.996 10 0 59454 63000.00000 0 -25025045.996 -4224949.588 2477855.429 10 0 59454 63900.00000 0 -25151275.187 -4124442.810 -721502.588 10 0 59454 64800.00000 0 -24879143.679 -3970934.472 -3906821.889 10 0 59454 65700.00000 0 -24209281.986 -3819056.560 -7016123.289 10 0 59454 66600.00000 0 -23155500.196 -3722471.962 -9988881.599 10 0 59454 67500.00000 0 -21744290.055 -3731359.583 -12767212.846 10 0 59454 68400.00000 0 -20013810.746 -3890051.162 -15297010.540 10 0 59454 69300.00000 0 -18012400.582 -4234921.270 -17529007.827 10 0 59454 70200.00000 0 -15796676.900 -4792621.285 -19419744.054 10 0 59454 71100.00000 0 -13429303.900 -5578733.396 -20932416.374 10 0 59454 72000.00000 0 -10976522.245 -6596902.690 -22037599.392 10 0 59454 72900.00000 0 -8505544.041 -7838485.037 -22713818.786 10 0 59454 73800.00000 0 -6081922.262 -9282726.463 -22947967.877 10 0 59454 74700.00000 0 -3767004.637 -10897467.085 -22735559.261 10 0 59454 75600.00000 0 -1615577.992 -12640340.480 -22080807.043 10 0 59454 76500.00000 0 326199.199 -14460418.452 -20996538.456 10 0 59454 77400.00000 0 2022490.581 -16300232.233 -19503937.055 10 0 59454 78300.00000 0 3449032.592 -18098085.422 -17632122.911 10 0 59454 79200.00000 0 4593891.342 -19790561.652 -15417578.355 10 0 59454 80100.00000 0 5457695.851 -21315121.744 -12903430.873 10 0 59454 81000.00000 0 6053339.894 -22612681.448 -10138607.508 10 0 59454 81900.00000 0 6405167.119 -23630061.714 -7176877.582 10 0 59454 82800.00000 0 6547675.677 -24322208.817 -4075802.830 10 0 59454 83700.00000 0 6523798.818 -24654091.491 -895615.762 10 0 59454 84600.00000 0 6382835.613 -24602195.858 2301951.627 10 0 59454 85500.00000 0 6178120.352 -24155555.932 5454865.647 10 0 59455 0.00000 0 5964529.983 -23316277.099 8501991.796 10 0 59455 900.00000 0 5795935.661 -22099530.845 11384275.846 10 0 59455 1800.00000 0 5722705.385 -20533022.379 14045881.501 10 0 59455 2700.00000 0 5789364.595 -18655952.219 16435264.316 10 0 59455 3600.00000 0 6032511.508 -16517516.642 18506160.972 10 0 59455 4500.00000 0 6479075.900 -14175008.426 20218475.897 10 0 59455 5400.00000 0 7144993.924 -11691596.841 21539049.097 10 0 59455 6300.00000 0 8034354.846 -9133878.230 22442291.342 10 0 59455 7200.00000 0 9139055.821 -6569297.951 22910675.242 10 0 59455 8100.00000 0 10438979.912 -4063549.365 22935073.431 10 0 59455 9000.00000 0 11902691.016 -1678056.376 22514937.604 10 0 59455 9900.00000 0 13488617.982 532357.323 21658314.907 10 0 59455 10800.00000 0 15146680.075 2521516.885 20381700.929 10 0 59455 11700.00000 0 16820287.521 4253578.799 18709731.322 10 0 59455 12600.00000 0 18448635.075 5704278.035 16674716.944 10 0 59455 13500.00000 0 19969194.059 6861688.512 14316030.271 10 0 59455 14400.00000 0 21320299.562 7726465.480 11679353.634 10 0 59455 15300.00000 0 22443724.870 8311559.828 8815802.708 10 0 59455 16200.00000 0 23287135.191 8641416.401 5780941.286 10 0 59455 17100.00000 0 23806317.155 8750690.124 2633705.779 10 0 59455 18000.00000 0 23967089.427 8682534.155 -564739.825 10 0 59455 18900.00000 0 23746812.857 8486532.678 -3752196.163 10 0 59455 19800.00000 0 23135435.167 8216366.280 -6866644.205 10 0 59455 20700.00000 0 22136024.727 7927309.457 -9847459.904 10 0 59455 21600.00000 0 20764769.595 7673667.265 -12636603.261 10 0 59455 22500.00000 0 19050440.677 7506260.837 -15179757.596 10 0 59455 23400.00000 0 17033340.691 7470069.532 -17427395.824 10 0 59455 24300.00000 0 14763782.513 7602130.827 -19335752.180 10 0 59455 25200.00000 0 12300160.351 7929788.000 -20867679.872 10 0 59455 26100.00000 0 9706694.546 8469360.755 -21993377.559 10 0 59455 27000.00000 0 7050944.354 9225295.822 -22690970.432 10 0 59455 27900.00000 0 4401192.692 10189834.076 -22946934.694 10 0 59455 28800.00000 0 1823812.106 11343208.658 -22756357.424 10 0 59455 29700.00000 0 -619278.383 12654366.088 -22123027.159 10 0 59455 30600.00000 0 -2872959.948 14082180.142 -21059353.864 10 0 59455 31500.00000 0 -4890966.948 15577107.443 -19586120.294 10 0 59455 32400.00000 0 -6637561.726 17083215.090 -17732070.017 10 0 59455 33300.00000 0 -8088762.702 18540494.941 -15533340.499 10 0 59455 34200.00000 0 -9233076.072 19887367.132 -13032752.719 10 0 59455 35100.00000 0 -10071702.476 21063267.428 -10278971.499 10 0 59455 36000.00000 0 -10618212.016 22011209.581 -7325553.279 10 0 59455 36900.00000 0 -10897703.347 22680214.926 -4229900.299 10 0 59455 37800.00000 0 -10945484.248 23027507.152 -1052141.936 10 0 59455 38700.00000 0 -10805331.046 23020380.198 2146034.727 10 0 59455 39600.00000 0 -10527401.771 22637661.019 5302582.010 10 0 59455 40500.00000 0 -10165892.278 21870706.160 8356293.019 10 0 59455 41400.00000 0 -9776535.029 20723890.632 11247984.082 10 0 59455 42300.00000 0 -9414046.457 19214568.900 13921635.421 10 0 59455 43200.00000 0 -9129630.657 17372509.756 16325468.514 10 0 59455 44100.00000 0 -8968644.412 15238828.611 18412940.006 10 0 59455 45000.00000 0 -8968521.522 12864461.482 20143633.767 10 0 59455 45900.00000 0 -9157043.353 10308243.594 21484034.862 10 0 59455 46800.00000 0 -9551028.013 7634671.607 22408171.473 10 0 59455 47700.00000 0 -10155493.086 4911441.265 22898113.228 10 0 59455 48600.00000 0 -10963327.307 2206861.296 22944316.955 10 0 59455 49500.00000 0 -11955485.533 -412750.764 22545813.554 10 0 59455 50400.00000 0 -13101699.805 -2885584.221 21710232.316 10 0 59455 51300.00000 0 -14361677.974 -5156659.502 20453661.826 10 0 59455 52200.00000 0 -15686741.176 -7179865.822 18800349.327 10 0 59455 53100.00000 0 -17021833.014 -8919628.480 16782243.333 10 0 59455 54000.00000 0 -18307817.660 -10352137.142 14438387.077 10 0 59455 54900.00000 0 -19483971.563 -11466084.349 11814173.219 10 0 59455 55800.00000 0 -20490564.888 -12262883.543 8960473.116 10 0 59455 56700.00000 0 -21271424.425 -12756357.615 5932656.536 10 0 59455 57600.00000 0 -21776369.893 -12971911.070 2789520.153 10 0 59455 58500.00000 0 -21963420.290 -12945220.686 -407854.539 10 0 59455 59400.00000 0 -21800676.199 -12720500.095 -3597291.621 10 0 59455 60300.00000 0 -21267797.222 -12348411.961 -6716735.812 10 0 59455 61200.00000 0 -20357010.724 -11883716.600 -9705467.712 10 0 59455 62100.00000 0 -19073607.725 -11382757.400 -12505294.624 10 0 59455 63000.00000 0 -17435903.582 -10900890.446 -15061692.771 10 0 59455 63900.00000 0 -15474663.891 -10489968.292 -17324877.607 10 0 59455 64800.00000 0 -13232018.695 -10195985.448 -19250780.588 10 0 59455 65700.00000 0 -10759909.883 -10056986.281 -20801912.799 10 0 59455 66600.00000 0 -8118136.435 -10101324.635 -21948098.175 10 0 59455 67500.00000 0 -5372079.051 -10346349.436 -22667061.989 10 0 59455 68400.00000 0 -2590199.108 -10797572.239 -22944863.244 10 0 59455 69300.00000 0 158583.721 -11448352.120 -22776162.784 10 0 59455 70200.00000 0 2807525.988 -12280111.239 -22164322.305 10 0 59455 71100.00000 0 5294597.750 -13263071.939 -21121332.760 10 0 59455 72000.00000 0 7564817.308 -14357484.051 -19667573.954 10 0 59455 72900.00000 0 9572286.989 -15515290.463 -17831410.499 10 0 59455 73800.00000 0 11281846.267 -16682160.434 -15648632.288 10 0 59455 74700.00000 0 12670274.519 -17799804.673 -13161750.884 10 0 59455 75600.00000 0 13726994.957 -18808474.359 -10419165.837 10 0 59455 76500.00000 0 14454252.155 -19649538.557 -7474217.545 10 0 59455 77400.00000 0 14866757.704 -20268031.274 -4384145.553 10 0 59455 78300.00000 0 14990820.954 -20615060.767 -1208972.925 10 0 59455 79200.00000 0 14863003.268 -20649979.655 1989661.260 10 0 59455 80100.00000 0 14528354.158 -20342224.564 5149698.239 10 0 59455 81000.00000 0 14038304.957 -19672748.104 8209861.343 10 0 59455 81900.00000 0 13448309.862 -18634983.135 11110839.939 10 0 59455 82800.00000 0 12815334.336 -17235299.001 13796432.730 10 0 59455 83700.00000 0 12195296.931 -15492930.621 16214628.751 10 0 59455 84600.00000 0 11640572.126 -13439383.185 18318605.877 10 0 59455 85500.00000 0 11197658.873 -11117336.958 20067628.284 10 0 59456 0.00000 0 10905112.271 -8579097.149 21427826.572 10 0 59456 900.00000 0 10791825.028 -5884652.079 22372846.532 10 0 59456 1800.00000 0 10875729.346 -3099419.798 22884354.608 10 0 59456 2700.00000 0 11162975.258 -291774.393 22952391.343 10 0 59456 3600.00000 0 11647617.984 2469546.585 22575566.112 10 0 59456 4500.00000 0 12311829.205 5118047.709 21761089.394 10 0 59456 5400.00000 0 13126623.594 7591987.875 20524641.619 10 0 59456 6300.00000 0 14053071.354 9836696.280 18890080.315 10 0 59456 7200.00000 0 15043947.123 11806596.985 16888990.189 10 0 59456 8100.00000 0 16045747.263 13466858.738 14560083.635 10 0 59456 9000.00000 0 17000991.897 14794601.832 11948461.893 10 0 59456 9900.00000 0 17850715.697 15779611.762 9104750.107 10 0 59456 10800.00000 0 18537042.999 16424529.928 6084121.965 10 0 59456 11700.00000 0 19005738.658 16744513.322 2945232.215 10 0 59456 12600.00000 0 19208626.556 16766377.401 -250922.456 10 0 59456 13500.00000 0 19105772.677 16527258.298 -3442191.951 10 0 59456 14400.00000 0 18667339.256 16072851.011 -6566487.143 10 0 59456 15300.00000 0 17875030.131 15455298.332 -9562995.612 10 0 59456 16200.00000 0 16723064.581 14730820.429 -12373374.190 10 0 59456 17100.00000 0 15218636.880 13957186.087 -14942894.077 10 0 59456 18000.00000 0 13381840.676 13191133.525 -17221515.154 10 0 59456 18900.00000 0 11245060.028 12485850.802 -19164867.826 10 0 59456 19800.00000 0 8851851.588 11888623.261 -20735122.601 10 0 59456 20700.00000 0 6255364.070 11438748.160 -21901730.088 10 0 59456 21600.00000 0 3516360.627 11165805.135 -22642016.880 10 0 59456 22500.00000 0 700926.417 11088355.777 -22941625.825 10 0 59456 23400.00000 0 -2122043.072 11213127.266 -22794792.337 10 0 59456 24300.00000 0 -4883468.465 11534714.286 -22204451.772 10 0 59456 25200.00000 0 -7516718.514 12035811.435 -21182176.178 10 0 59456 26100.00000 0 -9960138.415 12687965.789 -19747942.111 10 0 59456 27000.00000 0 -12159369.710 13452817.317 -17929734.461 10 0 59456 27900.00000 0 -14069366.019 14283774.200 -15762994.365 10 0 59456 28800.00000 0 -15656021.564 15128051.783 -13289922.393 10 0 59456 29700.00000 0 -16897345.927 15928988.569 -10558650.913 10 0 59456 30600.00000 0 -17784137.621 16628541.090 -7622302.116 10 0 59456 31500.00000 0 -18320129.968 17169851.932 -4537950.481 10 0 59456 32400.00000 0 -18521605.145 17499782.324 -1365510.249 10 0 59456 33300.00000 0 -18416494.452 17571302.263 1833430.130 10 0 59456 34200.00000 0 -18043004.350 17345637.344 4996803.525 10 0 59456 35100.00000 0 -17447827.585 16794081.837 8063266.261 10 0 59456 36000.00000 0 -16684015.871 15899401.755 10973383.560 10 0 59456 36900.00000 0 -15808604.465 14656768.940 13670775.417 10 0 59456 37800.00000 0 -14880088.993 13074186.915 16103201.191 10 0 59456 38700.00000 0 -13955860.630 11172390.347 18223562.636 10 0 59456 39600.00000 0 -13089707.111 8984221.929 19990806.738 10 0 59456 40500.00000 0 -12329483.907 6553511.907 21370711.929 10 0 59456 41400.00000 0 -11715052.539 3933505.821 22336543.495 10 0 59456 42300.00000 0 -11276571.756 1184904.663 22869566.349 10 0 59456 43200.00000 0 -11033212.556 -1626402.788 22959405.989 10 0 59456 44100.00000 0 -10992350.476 -4431823.033 22604251.044 10 0 59456 45000.00000 0 -11149268.918 -7162655.039 21810893.497 10 0 59456 45900.00000 0 -11487386.190 -9752695.512 20594605.438 10 0 59456 46800.00000 0 -11978997.313 -12140745.713 18978853.980 10 0 59456 47700.00000 0 -12586500.300 -14272916.861 16994858.831 10 0 59456 48600.00000 0 -13264056.359 -16104639.213 14680999.862 10 0 59456 49500.00000 0 -13959615.176 -17602291.739 12082084.792 10 0 59456 50400.00000 0 -14617220.814 -18744384.547 9248490.061 10 0 59456 51300.00000 0 -15179501.558 -19522244.665 6235190.494 10 0 59456 52200.00000 0 -15590238.752 -19940176.270 3100695.881 10 0 59456 53100.00000 0 -15796905.839 -20015088.351 -94085.102 10 0 59456 54000.00000 0 -15753069.481 -19775605.338 -3287031.500 10 0 59456 54900.00000 0 -15420550.072 -19260698.120 -6416023.730 10 0 59456 55800.00000 0 -14771248.810 -18517893.323 -9420159.772 10 0 59456 56700.00000 0 -13788562.376 -17601136.913 -12240949.378 10 0 59456 57600.00000 0 -12468323.712 -16568402.889 -14823461.992 10 0 59456 58500.00000 0 -10819227.483 -15479148.916 -17117405.009 10 0 59456 59400.00000 0 -8862720.740 -14391727.151 -19078110.547 10 0 59456 60300.00000 0 -6632361.955 -13360860.402 -20667410.910 10 0 59456 61200.00000 0 -4172674.349 -12435290.825 -21854385.242 10 0 59456 62100.00000 0 -1537540.694 -11655700.812 -22615962.748 10 0 59456 63000.00000 0 1211793.898 -11052993.890 -22937370.818 10 0 59456 63900.00000 0 4009028.047 -10647008.056 -22812419.540 10 0 59456 64800.00000 0 6785323.188 -10445715.346 -22243617.479 10 0 59456 65700.00000 0 9471930.937 -10444940.741 -21242116.835 10 0 59456 66600.00000 0 12002819.461 -10628611.494 -19827489.524 10 0 59456 67500.00000 0 14317189.946 -10969525.384 -18027338.927 10 0 59456 68400.00000 0 16361778.859 -11430604.552 -15876755.263 10 0 59456 69300.00000 0 18092850.803 -11966581.056 -13417625.583 10 0 59456 70200.00000 0 19477799.859 -12526042.076 -10697812.223 10 0 59456 71100.00000 0 20496293.862 -13053747.625 -7770216.008 10 0 59456 72000.00000 0 21140915.173 -13493122.201 -4691742.950 10 0 59456 72900.00000 0 21417272.810 -13788814.617 -1522194.902 10 0 59456 73800.00000 0 21343582.956 -13889217.498 1676893.928 10 0 59456 74700.00000 0 20949737.097 -13748839.873 4843451.579 10 0 59456 75600.00000 0 20275898.477 -13330432.610 7916070.706 10 0 59456 76500.00000 0 19370687.118 -12606777.062 10835195.418 10 0 59456 77400.00000 0 18289030.613 -11562061.572 13544269.633 10 0 59456 78300.00000 0 17089771.552 -10192787.881 15990825.234 10 0 59456 79200.00000 0 15833132.185 -8508169.092 18127489.588 10 0 59456 80100.00000 0 14578142.488 -6530002.125 19912893.752 10 0 59456 81000.00000 0 13380138.895 -4292019.199 21312464.800 10 0 59456 81900.00000 0 12288437.708 -1838744.342 22299087.956 10 0 59456 82800.00000 0 11344279.659 776098.713 22853626.601 10 0 59456 83700.00000 0 10579130.766 3491562.659 22965290.833 10 0 59456 84600.00000 0 10013409.734 6241756.474 22631847.859 10 0 59456 85500.00000 0 9655694.675 8958336.112 21859670.170 99